Santa Fe, NM

10:45 PM MST on February 21, 2018 (GMT -0700)
Santa Fe Municipal

Weather History for KSAF - January, 2014

Change the Weather History Date:

Sunday, January 19, 2014

  Actual Average Record
Temperature  
Mean Temperature 39 °F -  
Max Temperature 54 °F 48 °F 63 °F (2000)
Min Temperature 24 °F 23 °F 8 °F (2008)
Degree Days  
Heating Degree Days 26    
Moisture  
Dew Point 12 °F    
Average Humidity 40    
Maximum Humidity 60    
Minimum Humidity 18    
Precipitation  
Precipitation 0.00 in - - ()
Sea Level Pressure  
Sea Level Pressure 30.21 in    
Wind  
Wind Speed 12 mph (NNW)    
Max Wind Speed 17 mph    
Max Gust Speed -    
Visibility 10 miles    
Events      
Averages and records for this station are not official NWS values.
T = Trace of Precipitation, MM = Missing Value Source: NWS Daily Summary

Daily Weather History Graph

Daily Weather History Graph

Search for Another Location

Airport or City:

Trip Planner

Search our weather history database for the weather conditions in past years. The results will help you decide how hot, cold, wet, or windy it might be!

Date:

Astronomy

Jan. 19, 2014 Rise Set
Actual Time 7:11 AM MST 5:18 PM MST
Civil Twilight 6:44 AM MST 5:46 PM MST
Nautical Twilight 6:13 AM MST 6:17 PM MST
Astronomical Twilight 5:42 AM MST 6:47 PM MST
Moon 8:50 PM MST (1/19) 8:51 AM MST (1/19)
Length of Visible Light 11h 01m
Length of Day
10h 06m
Waning Gibbous, 89% of the Moon is Illuminated
Jan 19
Waning Gibbous
Jan 23
Last Quarter
Jan 30
New
Feb 6
First Quarter
Feb 14
Full

Hourly Weather History & Observations

Time (MST) Temp. Windchill Dew Point Humidity Pressure Visibility Wind Dir Wind Speed Gust Speed Precip Events Conditions
12:53 AM 28.0 °F 17.5 °F 10.9 °F 49% 30.26 in 10.0 mi NNE 12.7 mph - N/A   Clear
1:53 AM 28.0 °F 17.5 °F 10.9 °F 49% 30.25 in 10.0 mi North 12.7 mph - N/A   Clear
2:53 AM 26.1 °F 15.0 °F 10.9 °F 53% 30.25 in 10.0 mi North 12.7 mph - N/A   Clear
3:53 AM 25.0 °F 12.6 °F 10.9 °F 55% 30.26 in 10.0 mi North 15.0 mph - N/A   Clear
4:53 AM 25.0 °F 12.2 °F 10.9 °F 55% 30.26 in 10.0 mi North 16.1 mph - N/A   Clear
5:53 AM 24.1 °F 10.6 °F 12.0 °F 60% 30.30 in 10.0 mi North 17.3 mph - N/A   Clear
6:53 AM 24.1 °F 11.0 °F 12.0 °F 60% 30.32 in 10.0 mi North 16.1 mph - N/A   Clear
7:53 AM 24.1 °F 11.0 °F 12.0 °F 60% 30.33 in 10.0 mi North 16.1 mph - N/A   Clear
8:53 AM 30.0 °F 18.3 °F 12.9 °F 49% 30.35 in 10.0 mi North 17.3 mph - N/A   Clear
9:53 AM 37.0 °F 28.9 °F 12.9 °F 37% 30.34 in 10.0 mi North 12.7 mph - N/A   Clear
10:53 AM 44.1 °F 39.0 °F 12.9 °F 28% 30.28 in 10.0 mi North 9.2 mph - N/A   Clear
11:53 AM 46.9 °F - 12.9 °F 25% 30.22 in 10.0 mi WSW 6.9 mph - N/A   Clear
12:53 PM 48.0 °F - 12.0 °F 24% 30.18 in 10.0 mi West 10.4 mph - N/A   Clear
1:53 PM 50.0 °F - 12.9 °F 23% 30.12 in 10.0 mi WNW 11.5 mph - N/A   Clear
2:53 PM 52.0 °F - 12.0 °F 20% 30.10 in 10.0 mi NW 3.5 mph - N/A   Clear
3:53 PM 54.0 °F - 10.9 °F 18% 30.09 in 10.0 mi West 3.5 mph - N/A   Clear
4:53 PM 51.1 °F - 12.0 °F 21% 30.09 in 10.0 mi North 5.8 mph - N/A   Clear
5:53 PM 39.9 °F 35.8 °F 10.9 °F 31% 30.16 in 10.0 mi NNW 5.8 mph - N/A   Clear
6:53 PM 37.9 °F 33.5 °F 10.9 °F 33% 30.19 in 10.0 mi NNE 5.8 mph - N/A   Clear
7:53 PM 33.1 °F 30.0 °F 10.9 °F 40% 30.22 in 10.0 mi North 3.5 mph - N/A   Clear
8:53 PM 33.1 °F 26.1 °F 10.9 °F 40% 30.19 in 10.0 mi North 8.1 mph - N/A   Clear
9:53 PM 35.1 °F 26.9 °F 12.0 °F 39% 30.15 in 10.0 mi NNW 11.5 mph - N/A   Clear
10:53 PM 36.0 °F 28.0 °F 12.9 °F 39% 30.11 in 10.0 mi North 11.5 mph - N/A   Clear
11:53 PM 34.0 °F 25.0 °F 12.9 °F 42% 30.09 in 10.0 mi North 12.7 mph - N/A   Clear